N1QWW Weather Reports


Display with metric or nautical units.
time (UTC)temp
F
wind
direction
speed
MPH
gust
MPH
rain 1hr
in
rain 24hr
in
rain mn
in
humidity
%
barometer
mb
20260507030021 54 266 0.0 4.0 0.00 0.07 0.07 94 1006.8
20260507024514 55 222 0.0 9.0 0.00 0.07 0.07 94 1006.6
20260507023009 55 128 1.0 4.0 0.00 0.07 0.07 94 1006.8
20260507021507 55 9 0.0 6.0 0.00 0.07 0.07 94 1007.0
20260507020004 55 240 3.0 12.0 0.00 0.07 0.07 94 1007.2
20260507014506 55 249 0.0 9.0 0.00 0.07 0.07 94 1007.5
20260507013010 55 249 1.0 12.0 0.00 0.07 0.07 94 1007.6
20260507011504 55 224 3.0 10.0 0.00 0.07 0.07 94 1007.7
20260507010002 55 19 3.0 10.0 0.00 0.07 0.07 94 1007.7
20260507004600 55 229 2.0 8.0 0.00 0.07 0.07 94 1007.6
20260507003100 55 260 3.0 10.0 0.00 0.07 0.07 93 1007.6
20260507001608 56 82 1.0 10.0 0.01 0.07 0.07 93 1007.6
20260507000059 56 267 3.0 12.0 0.01 0.07 0.07 93 1007.6
20260506234559 57 246 1.0 10.0 0.04 0.07 0.07 94 1007.6
20260506233058 56 283 1.0 12.0 0.04 0.07 0.07 93 1007.6
20260506231609 56 138 1.0 7.0 0.04 0.06 0.06 93 1007.3
20260506230110 56 63 1.0 8.0 0.05 0.06 0.06 93 1007.4
20260506224553 56 281 2.0 8.0 0.02 0.03 0.03 93 1007.4
20260506223051 56 37 0.0 5.0 0.01 0.02 0.02 92 1007.7
20260506221608 56 269 1.0 8.0 0.01 0.02 0.02 91 1007.9
20260506220105 57 110 2.0 14.0 0.01 0.01 0.01 90 1008.2
20260506214550 58 270 2.0 14.0 0.01 0.01 0.01 90 1008.1
20260506213103 58 258 2.0 8.0 0.01 0.01 0.01 89 1008.1
20260506211545 58 96 1.0 10.0 0.01 0.01 0.01 88 1008.3
20260506210053 59 221 1.0 7.0 0.00 0.00 0.00 88 1008.3
20260506204543 59 299 2.0 9.0 0.00 0.00 0.00 87 1008.5
20260506203042 59 56 1.0 7.0 0.00 0.00 0.00 87 1008.5
20260506201546 59 298 2.0 7.0 0.00 0.00 0.00 86 1008.7
20260506200040 60 201 2.0 10.0 0.00 0.00 0.00 84 1008.9
20260506194540 60 325 3.0 11.0 0.00 0.00 0.00 81 1009.0
20260506193038 61 245 3.0 13.0 0.00 0.00 0.00 80 1009.2
20260506191537 61 52 3.0 12.0 0.00 0.00 0.00 80 1009.2
20260506190038 62 253 0.0 7.0 0.00 0.00 0.00 79 1009.3
20260506184540 63 260 1.0 11.0 0.00 0.00 0.00 78 1009.2
20260506183035 63 297 3.0 14.0 0.00 0.00 0.00 78 1009.5
20260506181532 62 316 2.0 12.0 0.00 0.00 0.00 78 1009.8
20260506180033 63 255 5.0 16.0 0.00 0.00 0.00 78 1010.2
20260506174533 64 238 3.0 21.0 0.00 0.00 0.00 77 1010.4
20260506173028 65 168 2.0 10.0 0.00 0.00 0.00 75 1010.5
20260506171538 65 105 2.0 13.0 0.00 0.00 0.00 76 1010.4
20260506170025 64 332 2.0 9.0 0.00 0.00 0.00 78 1010.6
20260506164523 62 177 3.0 11.0 0.00 0.00 0.00 80 1011.0
20260506163023 62 248 2.0 18.0 0.00 0.00 0.00 80 1011.3
20260506161519 63 307 5.0 17.0 0.00 0.00 0.00 77 1011.4
20260506160018 64 181 6.0 15.0 0.00 0.00 0.00 75 1011.5
20260506154519 64 103 3.0 10.0 0.00 0.00 0.00 76 1011.6
20260506153016 64 167 5.0 15.0 0.00 0.00 0.00 76 1011.7
20260506151521 64 283 2.0 8.0 0.00 0.00 0.00 76 1011.9
20260506150013 63 60 4.0 11.0 0.00 0.00 0.00 77 1011.7
20260506144510 63 201 4.0 19.0 0.00 0.00 0.00 79 1011.8
20260506143010 62 229 4.0 13.0 0.00 0.00 0.00 79 1011.8
20260506141509 63 122 5.0 13.0 0.00 0.00 0.00 78 1011.4
20260506140016 63 334 6.0 16.0 0.00 0.00 0.00 78 1011.7
20260506134506 63 278 5.0 19.0 0.00 0.00 0.00 78 1011.9
20260506133003 63 252 1.0 14.0 0.00 0.00 0.00 79 1012.1
20260506131503 62 263 4.0 11.0 0.00 0.00 0.00 80 1012.0
20260506124558 62 295 2.0 15.0 0.00 0.00 0.00 81 1011.8
20260506123056 61 324 0.0 18.0 0.00 0.00 0.00 82 1012.1
20260506121557 60 259 4.0 15.0 0.00 0.00 0.00 83 1011.9
20260506120053 60 212 1.0 14.0 0.00 0.00 0.00 85 1012.1
20260506114552 58 68 2.0 15.0 0.00 0.00 0.00 87 1012.3
20260506113044 57 79 2.0 13.0 0.00 0.00 0.00 88 1012.4
20260506111543 57 145 2.0 14.0 0.00 0.00 0.00 88 1012.2
20260506110043 57 269 2.0 9.0 0.00 0.00 0.00 89 1012.1
20260506104543 56 269 0.0 13.0 0.00 0.00 0.00 90 1012.3
20260506103039 56 163 0.0 12.0 0.00 0.00 0.00 90 1012.3
20260506101534 0 0.0 0.0 0.00 0.00 0.00 1012.2
20260506100030 0 0.0 0.0 0.00 0.00 0.00 1012.1
20260506094526 0 0.0 0.0 0.00 0.00 0.00 1012.0
20260506093024 0 0.0 0.0 0.00 0.00 0.00 1012.1
20260506091524 0 0.0 0.0 0.00 0.00 0.00 1012.2
20260506090023 0 0.0 0.0 0.00 0.00 0.00 1012.3
20260506084523 0 0.0 0.0 0.00 0.00 0.00 1012.3
20260506083018 0 0.0 0.0 0.00 0.00 0.00 1012.4
20260506081514 0 0.0 0.0 0.00 0.00 0.00 1012.4
20260506073002 55 297 1.0 12.0 0.00 0.00 0.00 90 1012.3
20260506071601 55 15 2.0 15.0 0.00 0.00 0.00 90 1012.4
20260506061551 55 80 1.0 9.0 0.00 0.00 0.00 89 1012.2
20260506044545 56 235 3.0 11.0 0.00 0.00 0.00 89 1012.9
20260506043038 56 269 5.0 15.0 0.00 0.00 0.00 89 1012.7
20260506041536 55 257 1.0 14.0 0.00 0.00 0.00 88 1012.7
20260506040033 56 273 2.0 9.0 0.00 0.00 0.00 88 1012.8
20260506034533 55 24 2.0 11.0 0.00 0.00 0.00 87 1012.7
20260506033036 55 133 1.0 10.0 0.00 0.00 0.00 87 1012.7
20260506031535 55 269 3.0 13.0 0.00 0.00 0.00 87 1012.7